sat.trackr.live / text

‹ back to catalog

QIANFAN-122

NORAD 68649 · 2026-075P

PAYLOAD ACTIVE UNKNOWN

§ Identity

Operator
Country
PRC
Launch date
2026-04-07
Launch site
WSC
Launch vehicle
Mass (kg)
RCS (m²)

External: N2YO · Heavens-Above · Gunter

§ Orbital elements

Epoch: 2026-09-19T22:07:58.470528Z

Period
106.59 min
Inclination
88.9864°
Eccentricity
0.0002126
Mean motion
13.51027391 rev/d
Perigee alt
1,066.9 km
Apogee alt
1,070.1 km
Semi-major
7,446.6 km
B*
4.9536e-5
RAAN
311.3230°
Arg perigee
87.7113°
Mean anomaly
272.4282°
Rev number
2,259

§ Raw data

QIANFAN-1221 68649U 26075P   26262.92220452  .00000044  00000+0  49536-4 0  99952 68649  88.9864 311.3230 0002126  87.7113 272.4282 13.51027391 22596

JSON: /api/v1/satellites/68649 · /tle

For live sub-satellite position, see the globe view (requires WebGL).

§ Visibility from observer

Set your observer location to see the next 7 days of passes ≥ 10°. The values pass through the URL so the page stays shareable.

No JS? Fill the form by hand. The geolocation button needs JavaScript.